Theta_e
310 307 308 309 307 308 307 306 306 306 308 309 309 309 309 310 310 310 311 311 312 313 315 315 315 315 314 314 314 315 316 316 314 314 313 313 312 310 309 309 308 305 304 302
308 307 307 307 307 307 307 308 308 308 309 306 307 309 309 309 310 311 311 311 312 312 313 314 314 314 314 314 314 314 314 315 315 315 314 313 313 312 310 309 307 306 304 302
309 309 308 308 308 308 306 307 308 308 307 306 306 308 307 307 308 310 311 311 311 312 313 314 314 315 314 314 314 314 314 313 314 315 314 313 311 310 309 309 307 305 304 302
307 308 308 307 308 307 309 307 308 308 308 309 308 311 308 311 310 306 309 311 313 314 314 314 314 314 314 314 314 314 314 313 314 313 312 313 313 313 313 312 311 309 306 304
309 308 308 309 309 307 309 308 308 308 307 307 308 307 311 308 308 308 307 311 313 314 312 313 314 314 314 314 313 313 314 313 313 313 313 312 311 312 312 311 311 309 307 305
306 307 307 308 307 306 308 309 307 304 306 310 309 308 310 308 309 309 309 314 314 313 313 314 313 313 314 314 313 311 312 313 312 312 311 312 312 310 310 310 310 309 307 305
306 306 307 307 308 307 308 308 309 309 309 313 307 308 312 309 308 309 310 313 314 313 313 312 313 313 313 313 313 312 311 311 311 311 310 310 310 308 309 309 310 309 308 306
307 315 306 305 307 309 306 307 308 308 310 314 307 312 313 308 309 311 309 310 312 312 312 312 313 313 312 313 313 311 310 310 310 309 310 308 307 308 309 309 308 309 308 308
306 309 306 304 306 307 306 308 307 308 298 303 311 310 312 309 307 307 308 309 311 310 310 313 313 312 312 312 313 313 310 310 309 308 308 308 308 307 309 309 309 308 307 307
309 309 307 306 306 306 307 306 308 305 311 309 311 310 313 312 310 308 306 306 311 312 313 313 313 312 311 312 313 312 310 309 309 309 308 307 307 307 307 307 309 309 308 307
308 311 314 310 306 307 305 307 307 307 310 315 316 314 313 311 309 307 309 311 311 311 311 310 308 308 308 309 310 309 308 309 308 309 309 308 307 307 307 306 306 307 307 307
308 312 314 314 311 307 308 312 312 313 314 310 312 314 312 311 310 309 310 311 308 304 304 304 303 304 304 306 307 308 308 305 305 305 304 304 305 306 305 307 307 307 306 305
311 313 315 313 310 307 310 310 310 311 312 313 314 314 310 310 310 310 306 304 302 301 300 300 301 300 298 299 299 302 304 305 307 308 307 305 303 303 304 305 306 306 306 305
309 311 312 314 312 308 309 307 306 306 307 309 309 313 312 308 304 297 297 295 295 294 294 294 294 295 295 295 295 295 297 298 301 305 306 306 305 304 305 304 302 303 303 304
304 304 305 303 302 302 302 302 302 303 304 305 305 306 304 296 295 296 294 293 292 292 292 292 292 293 292 292 293 295 294 294 295 301 303 305 306 306 305 304 304 304 303 302
298 299 299 298 299 298 298 297 298 299 299 301 305 304 294 293 293 294 293 292 291 291 291 292 291 291 291 291 290 291 293 295 293 296 300 301 304 306 305 304 303 303 301 300
295 294 289 297 297 294 293 294 295 296 296 296 299 295 293 292 292 291 291 292 290 289 290 291 290 291 290 290 290 289 291 292 293 293 298 297 298 301 303 301 302 302 303 300
293 290 286 289 286 288 294 296 294 295 293 292 292 293 292 291 291 289 291 290 289 288 288 289 288 287 288 288 288 288 288 292 292 292 296 297 295 296 296 296 297 298 301 300
293 293 285 288 286 293 296 292 290 289 290 290 290 292 292 291 289 289 288 288 288 288 287 287 286 286 286 286 286 286 288 288 288 291 292 296 296 294 293 293 294 294 297 300
290 293 293 280 288 288 290 290 290 290 288 287 289 288 289 290 287 287 288 288 287 286 286 286 285 285 285 285 285 285 285 286 286 287 288 291 296 297 294 291 291 292 292 293
278 275 281 277 279 283 287 289 288 285 288 287 289 290 290 289 287 287 288 287 286 286 285 284 284 283 284 284 283 283 284 284 284 284 285 287 290 294 297 295 291 290 291 290
285 280 278 273 275 283 287 288 285 287 288 288 288 289 289 288 287 287 287 286 285 285 284 284 283 282 282 282 281 282 282 282 283 283 284 285 286 290 292 295 295 290 289 290
286 286 282 283 284 288 289 289 290 289 288 288 288 288 288 286 286 285 285 284 284 283 282 282 281 282 283 282 280 279 281 281 282 282 282 283 283 285 289 290 293 293 289 289
287 288 287 288 289 289 289 289 289 289 288 288 288 288 286 284 284 283 282 282 281 281 280 279 279 279 280 280 279 279 279 278 279 280 281 282 282 283 284 289 289 290 292 290
289 287 286 288 289 289 289 289 288 289 288 288 287 286 284 282 282 280 279 279 278 278 278 277 276 276 276 276 275 275 275 275 277 277 278 279 280 280 281 283 287 289 289 291
289 289 289 289 289 289 289 289 288 288 286 285 284 284 282 279 278 277 277 276 275 275 275 274 273 273 273 272 272 272 271 271 272 275 276 276 276 278 278 280 282 285 288 289
Wind_Speed
4 4 8 21 12 2 1 5 7 9 12 4 15 18 20 26 32 33 37 38 45 51 52 49 47 45 41 42 42 44 43 43 46 47 49 50 52 50 48 47 46 45 43 42
2 7 13 2 4 7 9 12 15 13 18 5 14 19 19 20 26 39 40 43 39 38 44 43 40 38 35 34 34 36 40 43 45 47 49 51 52 52 50 49 49 48 47 45
11 6 9 7 5 8 6 7 17 13 7 6 9 11 9 10 16 33 44 42 38 39 42 41 38 35 35 34 33 33 32 39 45 47 50 53 54 53 53 54 53 51 49 46
7 6 7 3 7 11 16 12 13 11 4 4 5 10 3 13 15 10 25 34 37 35 33 32 31 32 33 33 28 27 30 34 37 46 52 54 57 59 57 55 52 52 51 49
8 5 4 5 10 7 10 5 5 2 4 5 3 4 3 4 6 10 9 23 28 25 23 22 26 28 31 35 33 31 28 32 39 45 48 53 56 57 56 55 53 53 52 51
8 3 5 7 5 9 2 1 3 3 2 7 12 9 3 4 6 4 3 14 13 17 20 19 21 25 31 43 40 29 32 33 39 44 47 49 53 56 58 57 53 52 52 52
2 5 4 5 3 0 3 4 4 4 1 10 2 5 12 6 9 6 11 19 17 16 14 18 22 30 35 45 42 33 31 35 37 41 45 47 50 52 56 55 53 51 50 53
4 13 8 5 9 8 7 8 5 7 6 12 3 14 11 8 8 14 12 11 9 17 16 17 27 37 40 40 40 41 30 28 31 36 39 43 46 48 51 53 53 50 47 45
5 8 2 6 3 6 5 5 3 3 2 1 11 20 19 12 7 3 6 3 13 22 21 41 49 48 36 39 40 45 34 27 27 30 32 36 40 46 48 50 50 50 46 42
3 11 5 1 3 1 5 3 1 2 3 11 12 7 20 15 10 8 9 15 28 37 37 42 45 38 35 34 36 36 30 25 21 24 27 31 35 40 46 48 48 49 45 44
4 2 9 1 6 9 2 3 3 2 5 12 12 11 16 10 6 9 12 24 25 33 41 38 32 29 29 27 26 29 25 24 32 28 27 29 34 36 40 46 49 49 46 45
6 3 6 14 12 7 7 20 22 13 9 9 17 19 23 20 14 10 21 31 28 24 26 27 25 26 28 27 24 24 26 28 27 31 36 36 34 35 39 42 45 47 48 48
3 3 8 16 3 5 0 4 7 14 17 26 21 17 4 14 21 27 25 21 27 30 30 30 29 30 33 33 32 27 26 26 25 27 31 35 38 40 40 41 44 46 49 49
3 5 10 10 15 7 8 11 19 16 9 14 17 19 12 17 18 27 28 27 25 28 31 34 36 35 35 38 38 37 32 29 27 25 27 31 33 37 40 42 44 44 47 48
1 5 2 13 14 17 16 19 23 22 23 21 27 27 10 11 13 14 25 30 29 29 31 32 36 39 45 44 44 43 41 39 36 31 26 30 31 31 36 41 42 45 46 48
2 5 6 13 22 9 18 22 22 25 27 26 21 17 5 8 16 19 23 26 33 36 35 35 37 39 43 45 47 46 43 43 42 39 34 29 28 32 33 36 40 43 46 46
3 3 2 15 20 10 10 14 15 10 8 5 6 4 6 8 13 16 20 18 22 28 30 30 36 32 39 42 42 45 45 45 42 42 40 34 29 28 31 32 36 40 41 45
9 3 3 7 4 4 6 6 7 7 5 6 6 5 4 10 16 20 13 15 27 28 31 30 35 36 38 40 42 43 42 42 45 42 42 41 35 29 26 26 34 37 36 40
15 8 3 3 6 9 13 4 3 4 5 4 4 6 10 10 14 10 16 24 26 31 29 31 34 34 37 39 42 44 43 43 41 41 41 41 41 38 30 25 27 32 33 35
4 9 5 2 2 5 4 3 7 2 5 6 8 6 5 7 5 11 26 30 33 29 34 34 35 36 37 39 41 45 46 42 44 45 40 38 40 41 37 28 25 26 30 35
3 3 5 3 3 8 5 6 6 3 7 10 10 15 14 5 9 27 43 38 33 34 36 36 36 38 39 40 43 46 46 47 46 49 49 39 35 35 36 31 23 22 25 29
4 3 3 3 3 8 8 4 4 10 23 23 24 25 25 24 28 32 40 40 37 41 40 39 40 43 43 43 46 48 50 51 51 49 46 45 37 33 32 32 27 22 22 24
4 7 4 9 7 6 16 23 38 29 25 31 27 31 23 27 31 34 35 40 42 42 43 43 43 46 48 51 49 50 54 55 54 54 52 46 43 37 31 32 30 26 26 24
6 11 8 12 15 17 31 36 29 34 38 38 36 26 27 29 34 33 34 40 45 47 46 45 46 50 55 55 54 56 56 53 55 57 56 51 46 43 37 33 31 30 31 30
8 5 6 13 17 25 30 32 34 32 34 28 26 30 31 29 36 29 36 44 44 46 49 43 45 51 59 58 58 56 56 53 53 57 56 54 47 43 40 38 34 32 34 30
12 16 10 14 27 23 28 34 26 22 22 26 28 34 33 29 34 35 44 44 41 46 48 45 49 49 58 57 61 60 55 53 50 52 54 51 46 44 37 37 38 34 32 31
Wind_Direction
180 149 193 227 206 285 169 252 248 266 276 299 268 268 275 275 284 274 270 267 270 272 278 280 280 281 281 276 273 268 262 258 248 241 239 239 240 237 235 234 233 231 231 230
73 226 224 85 165 228 250 269 269 273 264 205 269 273 268 265 257 264 271 275 270 276 286 289 291 291 289 286 282 274 264 253 251 245 242 240 240 238 238 238 234 230 229 228
213 211 208 194 173 239 219 219 260 261 320 250 297 273 230 261 253 260 265 265 273 274 286 295 300 305 301 299 299 289 277 260 251 245 239 236 235 237 235 234 234 232 231 229
242 258 196 150 215 213 266 224 250 266 359 248 16 297 305 260 270 245 264 273 279 282 289 297 315 324 323 320 314 295 281 265 254 247 243 240 236 233 234 236 235 232 231 230
245 188 172 186 219 145 241 199 227 189 207 337 228 267 236 152 260 270 278 285 289 292 308 333 345 345 343 331 315 304 290 270 257 247 244 243 239 239 239 235 232 231 229 231
245 287 179 221 234 182 48 42 50 67 102 270 203 198 96 164 194 240 228 304 286 330 349 352 354 1 5 355 334 298 284 278 261 251 245 242 241 239 236 233 234 231 229 229
249 227 242 176 222 50 146 76 308 318 43 255 172 228 251 237 223 213 282 280 279 333 341 344 349 349 345 345 333 316 284 271 263 252 248 245 242 239 240 239 235 233 229 227
236 282 187 174 199 191 180 167 167 238 261 282 89 261 270 212 248 251 274 291 297 326 327 344 334 329 329 330 334 323 307 283 267 258 252 248 246 243 242 241 240 239 237 235
219 258 200 204 152 149 172 179 195 292 7 306 266 277 282 219 284 285 290 347 312 329 327 324 326 324 328 327 327 326 314 304 287 271 263 257 252 248 243 240 239 241 241 238
298 299 212 289 95 50 174 187 52 357 256 258 268 273 262 302 307 319 323 343 333 324 317 312 313 311 313 328 332 329 321 307 302 292 277 266 258 252 249 243 241 242 241 240
16 138 254 9 195 195 89 250 243 231 203 250 261 257 273 291 305 329 315 313 321 316 314 326 332 334 331 334 335 333 327 324 327 307 294 279 267 259 253 248 245 243 242 241
205 214 251 253 242 202 210 253 241 244 246 231 254 260 284 295 309 314 314 317 351 16 3 2 1 356 352 350 344 336 325 316 316 313 300 285 275 265 258 254 250 248 245 244
83 227 291 290 67 20 141 335 295 307 269 260 267 266 285 320 324 323 11 17 8 5 358 356 358 356 356 355 354 348 340 334 316 302 301 297 286 274 266 258 254 250 247 246
161 222 230 264 280 333 285 326 305 284 280 300 294 308 321 320 343 342 8 29 23 18 9 2 357 352 351 352 352 351 347 349 339 319 300 292 291 288 282 275 268 261 254 250
117 258 328 304 292 303 306 283 275 271 272 264 281 282 322 15 356 352 353 1 4 7 6 357 352 346 345 345 345 344 345 346 346 337 318 303 294 286 282 277 273 269 262 257
354 285 348 290 288 294 288 287 271 267 269 269 268 275 35 14 9 5 347 349 349 346 347 347 346 346 337 340 341 340 340 342 344 344 337 324 296 281 277 276 271 268 264 257
222 213 100 273 286 324 288 252 263 279 348 327 286 42 8 349 345 327 312 327 341 338 334 333 337 330 332 335 335 335 335 336 337 341 341 340 327 296 275 273 270 266 266 263
241 210 163 264 48 241 248 87 100 119 120 85 38 350 302 295 310 303 305 327 333 329 333 329 329 331 331 329 329 328 333 329 330 332 329 338 340 328 306 282 272 266 262 262
218 220 247 226 205 281 305 20 39 93 256 207 230 265 258 290 303 303 329 321 317 319 322 321 323 325 326 327 327 327 327 330 327 323 324 322 332 335 327 309 289 274 263 256
68 214 201 23 215 235 244 231 269 181 259 218 215 252 235 269 305 302 323 318 317 313 319 320 319 320 323 324 325 325 326 325 323 320 320 316 315 319 329 322 304 287 269 260
16 10 180 246 249 284 246 246 311 100 279 301 303 297 257 239 258 298 315 311 310 311 310 311 311 313 318 322 324 324 323 319 319 314 314 313 308 304 308 314 312 300 281 265
158 161 224 72 41 285 196 335 135 278 296 296 291 290 266 280 297 301 305 304 307 309 309 309 309 310 313 315 317 317 315 316 316 314 311 311 309 304 299 299 299 295 280 272
268 196 202 187 225 249 284 284 286 292 288 295 286 291 268 285 289 296 297 302 304 304 304 305 306 306 307 310 312 311 314 314 313 311 308 305 306 301 296 291 289 287 278 266
241 223 238 263 262 257 269 277 280 285 285 288 289 278 285 289 295 294 298 299 303 304 304 305 304 302 304 306 306 306 308 309 307 305 304 305 302 299 290 284 283 278 273 272
240 165 217 253 271 276 272 269 274 284 290 285 279 287 291 293 295 297 296 299 299 299 300 300 298 298 299 302 302 302 303 303 301 300 300 300 298 295 289 283 277 277 272 270
228 247 242 257 270 267 276 281 293 290 288 292 292 292 295 300 298 299 298 299 296 298 299 295 295 295 297 298 299 300 300 301 300 296 295 295 294 290 283 281 282 271 273 270